Regional Weather Roundup
Issued by NWS Upton, NY

Current Version | Previous Version | Text Only | Print | Product List | Glossary Off
Versions: 1 2 3 4 5 6 7 8 9 10 11 12 13 14 15 16 17 18 19 20 21 22 23 24 25 26 27 28 29 30 31 32 33 34 35 36 37 38 39 40 41 42 43 44 45 46 47 48 49 50

000
ASUS41 KOKX 291718
RWROKX

REGIONAL WEATHER ROUNDUP
NATIONAL WEATHER SERVICE NEW YORK NY
100 PM EDT FRI MAY 29 2015

NOTE: "FAIR" INDICATES FEW OR NO CLOUDS BELOW 12,000 FEET WITH NO
SIGNIFICANT WEATHER AND/OR OBSTRUCTIONS TO VISIBILITY.

NYZ071-072-176-178-NJZ106-104-291800-
NEW YORK CITY METRO AREA


CITY           SKY/WX    TMP DP  RH WIND       PRES   REMARKS
CENTRAL PARK   SUNNY     82  53  36 CALM      30.29F
LAGUARDIA APRT MOSUNNY   78  54  43 NE8       30.27F
KENNEDY INTL   MOSUNNY   78  54  43 SE13      30.29S
NEWARK/LIBERTY MOSUNNY   81  53  37 VRB7      30.26F
BRNX BOT. GARD   N/A     79  54  41 SW2       30.29R
TETERBORO      SUNNY     79  54  41 CALM      30.26F
$$

NYZ177-179-078>081-291800-
LONG ISLAND NEW YORK

CITY           SKY/WX    TMP DP  RH WIND       PRES   REMARKS
FARMINGDALE    SUNNY     79  59  50 SE8       30.28S
ISLIP          MOSUNNY   77  56  48 SE10      30.26F
SHIRLEY        SUNNY     77  56  48 SE13      30.28F
WESTHAMPTON    SUNNY     75  56  51 SE12      30.29F
MONTAUK POINT    N/A     75  58  55 VRB3      30.30S
$$

NYZ052-065-067-291800-
HUDSON VALLEY

CITY           SKY/WX    TMP DP  RH WIND       PRES   REMARKS
WHITE PLAINS   MOSUNNY   76  56  49 VRB6      30.28F
NEWBURGH       SUNNY     75  59  57 CALM      30.29F
MONTGOMERY     SUNNY     77  58  51 SW5       30.27F
POUGHKEEPSIE   SUNNY     78  57  48 VRB6      30.26F
ALBANY         MOSUNNY   78  53  41 S3        30.27F
$$

NJZ001-105-106-008-010-013-015-019>022-104-291800-
NEW JERSEY

CITY           SKY/WX    TMP DP  RH WIND       PRES   REMARKS
NEWARK/LIBERTY MOSUNNY   81  53  37 VRB7      30.26F
TETERBORO      SUNNY     79  54  41 CALM      30.26F
CALDWELL       SUNNY     80  54  40 VRB5      30.27F
MORRISTOWN     SUNNY     81  55  41 S5        30.27F
SOMERVILLE     SUNNY     84  55  36 E3        30.25F
SUSSEX         SUNNY     78  55  44 CALM      30.29F
ANDOVER          N/A     79  54  41 SW5       30.28F
TRENTON        SUNNY     81  56  42 CALM      30.26F
MILLVILLE      SUNNY     83  63  50 CALM      30.26F
ATLANTIC CITY  SUNNY     79  58  48 E8        30.27F
WRIGHTSTOWN    MOSUNNY   83  57  41 S5        30.23F
TOMS RIVER     SUNNY    N/A N/A N/A E9        30.28F
BELMAR         SUNNY     73  54  49 E8        30.29F
$$

PAZ047>061-062-071-291800-
EASTERN PENNSYLVANIA

CITY           SKY/WX    TMP DP  RH WIND       PRES   REMARKS
PHILADELPHIA   MOSUNNY   83  58  42 NE5       30.26F
ALLENTOWN      SUNNY     83  54  36 NW3       30.27F
SCRANTON       SUNNY     80  55  42 W6        30.27F
$$

CTZ002-004>006-009-010-012-RIZ004-006-007-MAZ004-011-015-291800-
SOUTHERN NEW ENGLAND
 IN CT

CITY           SKY/WX    TMP DP  RH WIND       PRES   REMARKS
BRADLEY INTL   MOSUNNY   79  58  48 VRB5      30.27F
HARTFORD       SUNNY     79  57  46 S6        30.26F
DANBURY        SUNNY     76  56  49 VRB5      30.29F
WTRBRY/OXFORD  MOSUNNY   75  57  53 VRB6      30.30F
BRIDGEPORT     SUNNY     74  57  55 S10       30.28F
MERIDEN        SUNNY     82  55  39 VRB3      30.27F
NEW HAVEN      MOSUNNY   74  56  53 S10       30.28F
CHESTER        FAIR      77  59  53 SE5       30.29S
GROTON         SUNNY     71  57  61 S8        30.28S
WILLIMANTIC    SUNNY     80  56  43 VRB6      30.27F

 IN RI

CITY           SKY/WX    TMP DP  RH WIND       PRES   REMARKS
PROVIDENCE     MOSUNNY   79  57  46 S7        30.27F
BLOCK ISLAND   SUNNY     72  57  60 E7        30.30S
WESTERLY       SUNNY     74  57  55 SE10      30.29S

 IN MA

CITY           SKY/WX    TMP DP  RH WIND       PRES   REMARKS
BOSTON         MOSUNNY   69  59  70 E12       30.31S
WORCESTER      CLOUDY    77  56  48 VRB5      30.31S
WESTFIELD        N/A     79  57  46 VRB6      30.27F
PROVINCETOWN   CLOUDY    64  55  72 E10       30.31S
NANTUCKET      SUNNY     74  58  57 S8        30.28S
$$

ANZ330-335-338-340-345-350-353-355-291800-
COASTAL MARINE OBSERVATIONS


STATION/POSITION TIME  SKY/WX   TEMP    WIND        PRES    VSBY  WAVE
                                AIR SEA DIR/SP/G                  HT/PER
                 (UTC)          (F)     (DEG/KT/KT) (MB)    (MI)  (FT/S)
NY HARB ENTRANCE 1650            66 63  110/  4/  4 1025.4          2/ 8
4S FIRE IS       1603               61                N/A           3/ 8
20S FIRE ISLAND  1650            62 61   80/  4/  4 1025.7          2/ 8
GREAT SOUTH BAY  1630            68 70  150/  8/ 10   N/A
23SW MTP         1650            58 56   50/  6/  6 1025.5          3/ 8
HUDSON CANYON    NOT AVBL
KINGS POINT      1600            70 54   20/  7/ 10 1024.9
CENTRAL LI SOUND 1615            67 60  160/  4/  4   N/A
EASTERN LI SOUND 1600            61     220/  6/  6   N/A
ROBBINS REEF     1600            70     170/  8/ 10 1024.5
$$


>>>>>>>>>>>>>>>>>>>>>>>>>>>> KEY <<<<<<<<<<<<<<<<<<<<<<<<<<<
>                                                          <
>     SKY/WX - SKY CONDITION/PRESENT WEATHER               <
>     TMP    - TEMPERATURE IN FAHRENHEIT                   <
>     DP     - DEWPOINT IN FAHRENHEIT                      <
>     RH     - RELATIVE HUMIDITY IN PERCENT                <
>     WIND   - DIRECTION AND SPEED IN MPH                  <
>     PRES   - MEAN SEA LEVEL PRESSURE IN INCHES OF HG     <
>     WCI    - WIND CHILL INDEX                            <
>     VSB    - VISIBILITY IN MILES                         <
>     HX     - HEAT INDEX                                  <
>     TC     - TEMPERATURE IN CELSIUS                      <
>     VRB    - VARIABLE WIND DIRECTION                     <
>                                                          <
>>>>>>>>>>>>>>>>>>>>>>>>>>>> KEY <<<<<<<<<<<<<<<<<<<<<<<<<<<




USA.gov is the U.S. government's official web portal to all federal, state and local government web resources and services.